This is the latest recevied weather packets stored in our database for station/object KF4UQS-14. If no packets are shown the sender has not sent any weather packets the latest 10 day(s).
| Time | Temp. | Humidity | Pressure | Rain* | Wind** | Luminosity | Snow |
|---|---|---|---|---|---|---|---|
| 1777846956 | 17.22° C | 32% | 1016.2 hPa | 0 mm | - | 142 W/m² | - |
| 1777846654 | 17.78° C | 32% | 1016.1 hPa | 0 mm | - | 155 W/m² | - |
| 1777846352 | 17.78° C | 31% | 1016.1 hPa | 0 mm | - | 170 W/m² | - |
| 1777846048 | 17.78° C | 32% | 1016.1 hPa | 0 mm | - | 130 W/m² | - |
| 1777845745 | 17.78° C | 32% | 1016.2 hPa | 0 mm | - | 197 W/m² | - |
| 1777845442 | 17.78° C | 34% | 1016.1 hPa | 0 mm | - | 212 W/m² | - |
| 1777845139 | 17.78° C | 32% | 1016.1 hPa | 0 mm | - | 230 W/m² | - |
| 1777844837 | 18.33° C | 31% | 1016.2 hPa | 0 mm | - | 245 W/m² | - |
| 1777844533 | 17.78° C | 32% | 1016.2 hPa | 0 mm | - | 263 W/m² | - |
| 1777844231 | 17.78° C | 32% | 1016.2 hPa | 0 mm | - | 279 W/m² | - |
| 1777843928 | 17.78° C | 31% | 1016.1 hPa | 0 mm | - | 296 W/m² | - |
| 1777843625 | 17.22° C | 31% | 1016.2 hPa | 0 mm | - | 312 W/m² | - |
| 1777843323 | 17.22° C | 31% | 1016.2 hPa | 0 mm | - | 327 W/m² | - |
| 1777843021 | 17.78° C | 32% | 1016.1 hPa | 0 mm | - | 344 W/m² | - |
| 1777842716 | 17.78° C | 32% | 1015.9 hPa | 0 mm | - | 360 W/m² | - |
| 1777842412 | 17.22° C | 32% | 1016.1 hPa | 0 mm | - | 376 W/m² | - |
| 1777842109 | 17.22° C | 31% | 1016.1 hPa | 0 mm | - | 393 W/m² | - |
| 1777841804 | 17.78° C | 31% | 1016.1 hPa | 0 mm | - | 408 W/m² | - |
| 1777841501 | 17.78° C | 34% | 1016 hPa | 0 mm | - | 423 W/m² | - |
| 1777841198 | 18.33° C | 35% | 1016.1 hPa | 0 mm | - | 438 W/m² | - |
| 1777840895 | 17.22° C | 33% | 1016 hPa | 0 mm | - | 454 W/m² | - |
| 1777840592 | 17.78° C | 34% | 1016 hPa | 0 mm | - | 469 W/m² | - |
| 1777840290 | 17.22° C | 32% | 1016.1 hPa | 0 mm | - | 482 W/m² | - |
| 1777839987 | 17.78° C | 33% | 1016.1 hPa | 0 mm | - | 496 W/m² | - |
| 1777839685 | 17.22° C | 35% | 1016.2 hPa | 0 mm | - | 513 W/m² | - |
* Rain latest hour (hover to see other rain measurements)
** Current wind speed in m/s (hover to see current wind gust speed)